Location: Allos
(44.2333°N, 6.6333°E)
Time: 09:54:41
(UTC+00:00)

SMAP - Pass Details

Date: 01 December 2020
Orbit: 681 x 683 km, 98.1° (Epoch: 26 January)

Event Time Altitude Azimuth Distance (km) Brightness Sun altitude
Rises 16:58:56 0° 168° (SSE) 3,031 6.5 -11.1°
Reaches altitude 10° 17:01:09 10° 169° (S) 2,121 5.7 -11.4°
Maximum altitude 17:05:48 81° 256° (WSW) 698 3.2 -12.2°
Drops below altitude 10° 17:10:29 10° 345° (NNW) 2,138 5.6 -13.0°
Sets 17:12:45 0° 346° (NNW) 3,058 6.4 -13.4°
